Location: Taupo
(38.6830°S, 176.0830°E)
Time: 17:41:07
(UTC+13:00)

Cosmos 1745 Rocket - Pass Details

Date: 24 January 2019
Orbit: 953 x 997 km, 83.0° (Epoch: 16 February)

Event Time Altitude Azimuth Distance (km) Brightness Sun altitude
Exits shadow 23:05:14 26° 342° (NNW) 1,842 5.1 -23.2°
Maximum altitude 23:08:59 72° 262° (W) 1,052 4.2 -23.6°
Drops below altitude 10° 23:15:22 10° 177° (S) 2,779 7.1 -24.3°
Sets 23:17:55 0° 175° (S) 3,728 7.8 -24.6°
